sat.trackr.live / text

‹ back to catalog

STARLINK-5562

NORAD 56336 · 2023-058V

PAYLOAD ACTIVE UNKNOWN

§ Identity

Operator
Country
US
Launch date
2023-04-27
Launch site
AFWTR
Launch vehicle
Mass (kg)
RCS (m²)

Purposes: comms

External: N2YO · Heavens-Above · Gunter

§ Orbital elements

Epoch: 2026-09-20T22:00:03.000096Z

Period
94.85 min
Inclination
97.2855°
Eccentricity
0.0001122
Mean motion
15.18161688 rev/d
Perigee alt
510.6 km
Apogee alt
512.2 km
Semi-major
6,889.5 km
B*
3.9265e-3
RAAN
257.7835°
Arg perigee
85.9771°
Mean anomaly
32.2443°
Rev number
573

§ Raw data

STARLINK-55621 56336U 23058V   26263.91670139  .00080965  00000+0  39265-2 0  99902 56336  97.2855 257.7835 0001122  85.9771  32.2443 15.18161688  5739

JSON: /api/v1/satellites/56336 · /tle

For live sub-satellite position, see the globe view (requires WebGL).

§ Visibility from observer

Set your observer location to see the next 7 days of passes ≥ 10°. The values pass through the URL so the page stays shareable.

No JS? Fill the form by hand. The geolocation button needs JavaScript.